{"data":{"norad_id":67030,"intl_designator":"2025-294A","name":"STARLINK-36138","alt_names":[],"object_type":"PAYLOAD","status":"ACTIVE","operator":null,"country":"US","launch_date":"2025-12-11","launch_site_code":"AFETR","launch_vehicle":null,"mission":null,"orbit_class":"UNKNOWN","rcs_meters":null,"size_class":null,"mass_kg":null,"dimensions":null,"purposes":["comms"],"wikipedia_slug":null,"has_3d_model":false,"image_url":null,"decayed_at":null,"tle_current":{"epoch":"2026-05-24T20:04:34.273920Z","epoch_age_seconds":85318,"freshness":"FRESH","line1":"1 67030U 25294A   26144.83650780  .00024059  00000+0  88030-3 0  9993","line2":"2 67030  42.9990 328.1499 0000893 207.7252 152.3552 15.27604329 26440","mean_motion":15.27604329,"eccentricity":8.93e-5,"inclination_deg":42.999,"raan_deg":328.1499,"arg_perigee_deg":207.7252,"mean_anomaly_deg":152.3552,"bstar":0.0008803,"rev_number":2644,"period_min":94.265247398366,"perigee_km":482.36354981522,"apogee_km":483.58894464117,"semimajor_km":6861.1132472282,"source":"CELESTRAK","updated_at":"2026-05-25T13:38:21.435624Z"}}}